{"data":{"norad_id":65632,"epoch":"2026-09-20T21:24:34.968096Z","epoch_age_seconds":77993,"freshness":"FRESH","line1":"1 65632U 25210L   26263.89207139  .00014128  00000+0  42841-3 0  9997","line2":"2 65632  53.1630 119.9483 0001891  93.8740 266.2479 15.34405347 57629","mean_motion":15.34405347,"eccentricity":0.0001891,"inclination_deg":53.163,"raan_deg":119.9483,"arg_perigee_deg":93.874,"mean_anomaly_deg":266.2479,"bstar":0.00042841,"rev_number":5762,"period_min":93.847431046524,"perigee_km":461.39374795825,"apogee_km":463.9809477266,"semimajor_km":6840.8243478424,"source":"CELESTRAK","updated_at":"2026-09-21T09:00:35.674502Z"}}